shijiazhuang , China , ASIA

  • Wednesday
    September 18

      Cloudy

      61 °F

      No wind

       

  • Thursday
    September 19

    Overcast  Overcast

    73 °F  63 °F

    South  No wind

    3~4L    

  • Friday
    September 20

    Overcast  Cloudy

    81 °F  63 °F

    South  North

        

  • Saturday
    September 21

    Sunny  Sunny

    84 °F  64 °F

    North  North

        

  • Sunday
    September 22

    Sunny  Sunny

    82 °F  63 °F

    North  North

        

  • Monday
    September 23

    Sunny  Sunny

    84 °F  64 °F

    South  North

        

  • Tuesday
    September 24

    Sunny  Sunny

    84 °F  63 °F

    South  North

        

Date   Weather Temperature Humidity Total_rain Visibility Wind
23:00 Cloudy 65°F 84.9% 0mm 999.9km Southwest  0.9m/s
02:00 Cloudy 63°F 85.7% 0mm 999.9km Southwest  0.7m/s
05:00 Cloudy 61°F 85.7% 0mm 999.9km Southwest  1.1m/s
08:00 Cloudy 64°F 80% 0mm 999.9km Southwest  1.0m/s
11:00 Overcast 71°F 68.1% 0mm 999.9km Southwest  1.4m/s
14:00 Overcast 73°F 66.4% 0mm 999.9km Southeast  2.5m/s
17:00 Overcast 72°F 69.5% 0mm 999.9km Southeast  1.8m/s
20:00 Overcast 71°F 72.6% 0mm 999.9km Southwest  1.1m/s
23:00 Overcast 67°F 82.6% 0mm 999.9km Northwest  1.1m/s
02:00 Overcast 66°F 74.2% 0mm 999.9km Northwest  1.7m/s
05:00 Overcast 63°F 71.8% 0mm 999.9km Northwest  1.9m/s
08:00 Overcast 66°F 69.4% 0mm 999.9km Southwest  2.1m/s
11:00 Overcast 76°F 50.8% 0mm 999.9km Northwest  2.0m/s
14:00 Overcast 80°F 41.8% 0mm 999.9km Southeast  2.3m/s
17:00 Overcast 78°F 43.3% 0mm 999.9km Southeast  2.0m/s
20:00 Overcast 72°F 44.8% 0mm 999.9km Southwest  1.3m/s
23:00 Cloudy 69°F 71.3% 0mm 999.9km Southwest  0.8m/s
02:00 Cloudy 66°F 73.3% 0mm 999.9km Southwest  1.6m/s
05:00 Cloudy 63°F 76.4% 0mm 999.9km Northeast  1.6m/s
08:00 Cloudy 68°F 71.1% 0mm 999.9km Northwest  1.5m/s
11:00 Sunny 82°F 53.6% 0mm 999.9km Northeast  1.2m/s
14:00 Sunny 84°F 48.9% 0mm 999.9km Northeast  2.5m/s
17:00 Sunny 78°F 61.2% 0mm 999.9km Northeast  1.7m/s
20:00 Sunny 73°F 48.7% 0mm 999.9km Northeast  1.4m/s
23:00 Sunny 69°F 82.7% 0mm 999.9km Northeast  0.8m/s
02:00 Sunny 65°F 83.6% 0mm 999.9km Southwest  1.6m/s
05:00 Sunny 66°F 84.3% 0mm 999.9km Southwest  1.3m/s
08:00 Sunny 67°F 77.5% 0mm 999.9km Southwest  1.5m/s
11:00 Sunny 79°F 59.3% 0mm 999.9km Northeast  1.9m/s
14:00 Sunny 82°F 57% 0mm 999.9km Northeast  2.2m/s
17:00 Sunny 78°F 65.9% 0mm 999.9km Southeast  2.4m/s
20:00 Sunny 75°F 54.2% 0mm 999.9km Southeast  1.6m/s
23:00 Sunny 67°F 79.5% 0mm 999.9km Southwest  0.8m/s
02:00 Sunny 67°F 80.1% 0mm 999.9km Northwest  1.1m/s
05:00 Sunny 63°F 78% 0mm 999.9km Southwest  1.4m/s
08:00 Sunny 69°F 70.6% 0mm 999.9km Southwest  1.7m/s
11:00 Sunny 83°F 52.7% 0mm 999.9km Northeast  2.2m/s
14:00 Sunny 84°F 24.3% 0mm 999.9km Northeast  2.6m/s
17:00 Sunny 82°F 40.6% 0mm 999.9km Southeast  2.1m/s
20:00 Sunny 74°F 30.6% 0mm 999.9km Southwest  1.6m/s
23:00 Sunny 68°F 70.5% 0mm 999.9km Northeast  0.7m/s
02:00 Sunny 67°F 57.1% 0mm 999.9km Northwest  1.5m/s
05:00 Sunny 65°F 53.6% 0mm 999.9km Northeast  1.2m/s
08:00 Sunny 68°F 50.1% 0mm 999.9km Southwest  1.7m/s
11:00 Sunny 81°F 35.2% 0mm 999.9km Northeast  2.6m/s
14:00 Sunny 84°F 15.3% 0mm 999.9km Southeast  2.7m/s
17:00 Sunny 82°F 22.9% 0mm 999.9km Southeast  2.4m/s
20:00 Sunny 74°F 30.5% 0mm 999.9km Southwest  1.7m/s
23:00 Sunny 66°F 58.7% 0mm 999.9km Southwest  0.6m/s
02:00 Sunny 66°F 53.8% 0mm 999.9km Southwest  1.0m/s
05:00 Sunny 63°F 50.5% 0mm 999.9km Northwest  1.4m/s